Tracking 25949 objects as of 8-Aug-2022
HD Live streaming from Space Station
objects crossing your sky now

CLUSTER II-FM6

Track CLUSTER II-FM6 now!
CLUSTER II-FM6 is classified as:


NORAD ID: 26410
Int'l Code: 2000-041A
Perigee: 24,613.4 km
Apogee: 108,312.7 km
Inclination: 134.4 °
Period: 3,260.3 minutes
Semi major axis: 72834 km
RCS: 1.9953 m2 (large)
Launch date: July 16, 2000
Source: European Space Agency (ESA)
Launch site: TYURATAM MISSILE AND SPACE COMPLEX (TTMTR)
aabbcc
Your satellite tracking list
Your tracking list is empty




NASA's NSSDC Master Catalog

Two Line Element Set (TLE):
1 26410U 00041A   22214.13514510  .00000281  00000-0  00000+0 0  9999
2 26410 134.3893 348.2228 5745895 200.1360 359.3722  0.44167344 25775
Source of the keplerian elements: AFSPC